TimeEDT,TemperatureF,Dew PointF,Humidity,Sea Level PressureIn,VisibilityMPH,Wind Direction,Wind SpeedMPH,Gust SpeedMPH,PrecipitationIn,Events,Conditions,WindDirDegrees,DateUTC
12:53 AM,79.0,73.9,84,30.15,10.0,SE,9.2,-,N/A,,Scattered Clouds,130,2013-07-08 04:53:00
1:53 AM,78.1,73.9,87,30.14,10.0,SE,8.1,-,N/A,,Scattered Clouds,140,2013-07-08 05:53:00
2:53 AM,78.1,73.9,87,30.14,10.0,SE,6.9,-,N/A,,Partly Cloudy,140,2013-07-08 06:53:00
3:08 AM,-9999,-9999,N/A,-9999,-9999.0,North,-9999.0,-,N/A,,Unknown,0,2013-07-08 07:08:00
3:53 AM,78.1,73.9,87,30.14,10.0,SSE,5.8,-,N/A,,Scattered Clouds,150,2013-07-08 07:53:00
4:53 AM,78.1,73.9,87,30.14,10.0,SE,4.6,-,N/A,,Partly Cloudy,130,2013-07-08 08:53:00
5:53 AM,77.0,73.9,90,30.14,10.0,SE,5.8,-,N/A,,Scattered Clouds,140,2013-07-08 09:53:00
6:53 AM,77.0,75.0,94,30.16,10.0,ESE,4.6,-,N/A,,Mostly Cloudy,110,2013-07-08 10:53:00
7:53 AM,78.1,75.0,90,30.17,10.0,East,3.5,-,N/A,,Mostly Cloudy,90,2013-07-08 11:53:00
8:53 AM,80.1,73.0,79,30.18,10.0,ESE,4.6,-,N/A,,Mostly Cloudy,110,2013-07-08 12:53:00
9:53 AM,82.0,73.0,74,30.18,10.0,ESE,5.8,-,N/A,,Mostly Cloudy,120,2013-07-08 13:53:00
10:00 AM,-9999,-9999,N/A,-9999,-9999.0,North,-9999.0,-,N/A,,Unknown,0,2013-07-08 14:00:00
10:53 AM,82.9,72.0,69,30.19,10.0,East,6.9,-,N/A,,Mostly Cloudy,100,2013-07-08 14:53:00
11:53 AM,86.0,70.0,59,30.19,10.0,Variable,4.6,-,N/A,,Mostly Cloudy,0,2013-07-08 15:53:00
12:53 PM,87.1,71.1,59,30.18,10.0,East,6.9,-,N/A,,Mostly Cloudy,100,2013-07-08 16:53:00
1:53 PM,89.1,70.0,53,30.16,10.0,East,8.1,-,N/A,,Mostly Cloudy,100,2013-07-08 17:53:00
2:53 PM,90.0,71.1,54,30.16,10.0,East,10.4,-,N/A,,Mostly Cloudy,100,2013-07-08 18:53:00
3:53 PM,90.0,70.0,52,30.14,10.0,East,13.8,-,N/A,,Mostly Cloudy,100,2013-07-08 19:53:00
4:53 PM,88.0,70.0,55,30.13,10.0,ESE,10.4,-,N/A,,Mostly Cloudy,120,2013-07-08 20:53:00
5:53 PM,88.0,69.1,53,30.11,10.0,ESE,12.7,-,N/A,,Mostly Cloudy,110,2013-07-08 21:53:00
6:53 PM,87.1,70.0,57,30.11,10.0,ESE,13.8,-,N/A,,Mostly Cloudy,120,2013-07-08 22:53:00
7:53 PM,84.0,70.0,63,30.13,10.0,ESE,11.5,-,N/A,,Mostly Cloudy,120,2013-07-08 23:53:00
8:53 PM,82.0,72.0,71,30.14,10.0,ESE,9.2,-,N/A,,Scattered Clouds,110,2013-07-09 00:53:00
9:53 PM,81.0,73.0,77,30.16,10.0,ESE,6.9,-,N/A,,Partly Cloudy,120,2013-07-09 01:53:00
10:53 PM,80.1,73.9,81,30.18,10.0,SE,6.9,-,N/A,,Partly Cloudy,130,2013-07-09 02:53:00
11:53 PM,80.1,75.0,85,30.18,10.0,SSE,9.2,-,N/A,,Partly Cloudy,160,2013-07-09 03:53:00